Home   Weather   Paamiut   Past weeks
Flag for Greenland

Past Weather in Paamiut, Greenland — Yesterday and Last 2 Weeks

Now
42 °F

Rain showers. Low clouds.


Feels Like: 36 °F
Forecast: 44 / 42 °F
Wind: 10 mph from Northwest

Location: Frederikshaab

Current Time: Jul 20, 2019 at 2:19:15 pm

Latest Report: Jul 20, 2019 at 1:00 pm


Visibility: 0 mi

Pressure: 29.86 "Hg

Humidity: 97%

Dew Point: 41 °F

Location of PaamiutLocation

Past Weather in Paamiut — Graph

°F

Paamiut Temperature Yesterday

Maximum temperature yesterday: 46 °F (at 11:00 am)
Minimum temperature yesterday: 43 °F (at 9:00 pm)
Average temperature yesterday: 44 °F

High & Low Weather Summary for the Past Weeks

 TemperatureHumidityPressure
High67 °F (Jul 8, 3:00 pm)100% (Jul 9, 10:00 pm)30.19 "Hg (Jul 9, 10:00 pm)
Low39 °F (Jul 15, 4:00 am)39% (Jul 8, 3:00 pm)29.80 "Hg (Jul 8, 11:00 am)
Average47 °F85%29.94 "Hg
* Reported Jul 5 12:00 pm — Jul 20 12:00 pm, Paamiut. Weather by CustomWeather, © 2019

Note: Actual official high and low records may vary slightly from our data, if they occured in-between our weather recording intervals... More about our weather records

Advertising

Paamiut Weather History for the Previous 24 Hours

Scroll right to see more
 ConditionsComfort  
Time TempWeatherWind HumidityBarometerVisibility
12:00 pm
Sat, Jul 20
41 °FFog.10 mph98%29.87 "Hg0 mi
11:00 am42 °FDense fog.8 mph98%29.88 "Hg0 mi
10:00 am42 °FDense fog.8 mph99%29.89 "Hg0 mi
9:00 am41 °FDense fog.8 mph100%29.90 "Hg0 mi
8:00 am41 °FDense fog.7 mph100%29.90 "Hg0 mi
7:00 am41 °FDense fog.8 mph100%29.91 "Hg0 mi
6:00 am41 °FDense fog.7 mph100%29.91 "Hg0 mi
5:00 am41 °FDense fog.9 mph100%29.92 "Hg0 mi
4:00 am41 °FDense fog.9 mph100%29.92 "Hg0 mi
3:00 am42 °FDense fog.9 mph100%29.93 "Hg0 mi
2:00 am42 °FDense fog.8 mph100%29.93 "Hg0 mi
1:00 am43 °FDense fog.7 mph100%29.93 "Hg0 mi
12:00 am43 °FDense fog.6 mph100%29.94 "Hg0 mi
11:00 pm
Fri, Jul 19
43 °FDense fog.7 mph100%29.94 "Hg0 mi
10:00 pm43 °FDense fog.9 mph100%29.95 "Hg0 mi
9:00 pm43 °FDense fog.10 mph100%29.95 "Hg0 mi
8:00 pm43 °FLow clouds.8 mph99%29.95 "Hg0 mi
7:00 pm44 °FRain showers. Low clouds.9 mph97%29.94 "Hg0 mi
6:00 pm44 °FDense fog.9 mph97%29.94 "Hg0 mi
5:00 pm44 °FDense fog.10 mph97%29.93 "Hg0 mi
4:00 pm45 °FLow clouds.9 mph95%29.93 "Hg0 mi
3:00 pm45 °FLow clouds.9 mph91%29.93 "Hg4 mi
2:00 pm46 °FLow clouds.10 mph90%29.93 "Hg18 mi
Weather by CustomWeather, © 2019

See weather overview